Tracking 22456 objects as of 7-Mar-2021
HD Live streaming from Space Station
objects crossing your sky now

DELTA 1 DEB

Track DELTA 1 DEB now!
10-day predictions


NORAD ID: 10206
Int'l Code: 1977-065AK
Perigee: 715.8 km
Apogee: 1,580.0 km
Inclination: 29.2 °
Period: 108.1 minutes
Semi major axis: 7518 km
RCS: 0.071 m2 (small)
Launch date: July 14, 1977
Source: United States (US)
Launch site: AIR FORCE EASTERN TEST RANGE (AFETR)

Note: This is SATELLITE DEBRIS
aabbcc
Your satellite tracking list
Your tracking list is empty




NASA's NSSDC Master Catalog

Two Line Element Set (TLE):
1 10206U 77065AK  21065.85181618  .00000802  00000-0  59142-3 0  9990
2 10206  29.2166 118.9089 0574721 252.2820 101.4219 13.31591829 75192
Source of the keplerian elements: AFSPC